Location: Claremont
(35.7250°N, 81.1500°W)
Time: 02:16:35
(UTC-04:00)

Daily predictions for brighter satellites

Satellite Brightness Start Highest point End
(mag) Time Altitude Azimuth Time Altitude Azimuth Time Altitude Azimuth
FALCON 9 R/B 4.2 03:31:24 82° SE 03:31:24 82° SE 04:05:19 10° E
Cosmos 2322 Rocket 3.8 04:28:05 27° N 04:28:05 27° N 04:30:39 10° NNE
CENTAUR R/B 3.9 04:30:07 29° NNW 04:30:07 29° NNW 04:34:21 10° NNE
SL-16 R/B 3.7 04:31:51 28° N 04:31:51 28° N 04:34:37 10° NNE
USA 215 4.3 04:24:23 10° ESE 04:30:27 41° NE 04:36:30 10° NNW
ADEOS Rocket 4.3 04:26:50 10° N 04:29:18 27° N 04:29:18 27° N
COSMOS 2428 4.5 04:32:15 23° SE 04:33:44 26° ESE 04:38:19 10° NE
Cosmos 2074 Rocket 4.5 04:37:55 10° N 04:44:04 58° E 04:47:30 27° SSE
ISS -0.4 04:51:36 11° E 04:51:36 11° E 04:51:49 10° E
CZ-2D R/B 4.2 04:51:49 10° NNW 04:53:19 17° NNW 04:53:19 17° NNW
Cosmos 2360 Rocket 2.3 04:57:54 67° N 04:57:54 67° N 05:02:49 10° NNE
Resurs 1-4 Rocket 4.3 04:56:45 10° NNW 04:57:39 14° NNW 04:57:39 14° NNW
Okean O Rocket 1.9 05:05:57 10° NNE 05:09:49 64° NE 05:09:49 64° NE
OAO 3 Copernicus 4.5 05:13:29 62° SE 05:13:29 62° SE 05:18:07 10° E
PAYLOAD B 4.3 05:10:20 10° NNE 05:15:58 77° ESE 05:18:06 40° S
Cosmos 1340 4.2 05:18:04 29° N 05:18:04 29° N 05:20:02 10° N
Cosmos 2184 Rocket 3.8 05:12:10 10° N 05:18:22 77° W 05:22:49 20° S
Meteor 1-12 Rocket 4.2 05:15:00 10° N 05:20:40 87° E 05:26:24 10° S
DELTA 2 R/B (1) 3.4 05:20:34 71° WSW 05:21:12 88° SSE 05:26:46 10° ENE
Cosmos 2333 Rocket 4.0 05:17:04 10° SSE 05:21:52 29° ESE 05:26:43 10° NE
Meteor 1-18 Rocket 4.2 05:22:11 58° WNW 05:22:11 58° WNW 05:27:34 10° N
Cosmos 1777 Rocket 3.8 05:18:17 10° NNW 05:23:36 81° WSW 05:28:52 10° SSE
ASTRO E2 4.5 05:27:46 22° SSE 05:27:46 22° SSE 05:29:41 10° SE
Cosmos 1743 4.1 05:24:57 10° N 05:28:35 38° E 05:32:10 10° SSE
ADEOS II 2.0 05:23:32 10° NNE 05:28:49 87° W 05:30:52 39° SSW
Cosmos 2322 3.9 05:29:55 48° W 05:30:19 49° WNW 05:35:53 10° N
Cosmos 1455 Rocket 3.3 05:28:32 10° NNW 05:32:07 53° NW 05:32:07 53° NW
Lacrosse 5 2.8 05:34:52 31° S 05:34:52 31° S 05:37:50 10° SSE
MOS 1 Rocket 4.3 05:30:11 10° N 05:33:14 30° NW 05:33:14 30° NW
EO 1 Del DPAF 3.1 05:34:09 64° SSE 05:34:42 90° WSW 05:38:35 10° NNW
Meteor 1-13 Rocket 4.3 05:33:01 12° S 05:38:10 77° E 05:43:45 10° NNE
Cosmos 1238 Rocket 2.3 05:46:13 62° N 05:46:13 62° N 05:48:44 10° N
Cosmos 2333 4.1 05:46:11 27° SSW 05:49:22 77° WNW 05:55:05 10° NNE
Cosmos 2154 Rocket 3.9 05:45:50 10° N 05:52:02 79° W 05:58:13 10° S
Cosmos 1975 4.0 05:48:21 10° NNW 05:50:38 27° NW 05:50:38 27° NW
Lacrosse 4 Rocket 1.3 05:48:18 10° NNW 05:52:31 86° WSW 05:56:49 10° SSE
Cosmos 1536 Rocket 4.1 05:54:40 36° W 05:54:50 37° W 05:59:00 10° N
Cosmos 2208 Rocket 4.2 05:53:05 29° SW 05:55:41 56° WNW 06:01:04 10° N
CZ-4B DEB 4.4 05:52:00 10° N 05:57:20 49° WNW 06:00:33 23° SW
Tiangong 2 2.6 05:59:14 21° NNW 06:00:34 30° NNE 06:03:24 10° E
CZ-4B R/B 3.6 05:56:18 10° N 06:01:38 45° WNW 06:04:59 21° SW
Meteor PRIRODA 3.6 05:59:08 10° N 06:02:53 67° WNW 06:05:25 19° SSW
GOES 2 Rocket 4.3 06:02:58 24° SW 06:05:26 40° S 06:11:19 10° ESE
Okean 1-7 Rocket 3.6 06:02:05 10° S 06:06:37 89° WNW 06:11:08 10° N
Cosmos 2181 Rocket 3.9 06:02:34 10° S 06:08:44 81° W 06:15:03 10° N
RUBIN 8/PSLV 4.5 06:05:48 10° N 06:10:03 67° WNW 06:14:18 10° SSW
Cosmos 1980 4.1 06:06:18 10° S 06:11:52 65° ESE 06:17:27 10° NNE
USA 215 3.4 06:06:53 10° SSE 06:13:16 54° SW 06:19:41 10° NW
PSLV R/B 4.5 06:09:35 10° NNW 06:13:19 29° WNW 06:14:44 23° WSW
SL-8 Rocket 4.3 06:09:47 10° N 06:16:00 71° E 06:22:08 10° SSE
Meteor 1-23 Rocket 4.4 06:10:43 10° S 06:16:32 84° E 06:22:20 10° N
COSMOS 2428 3.3 06:14:19 20° WSW 06:17:44 38° WNW 06:23:01 10° N
CZ-2C R/B 4.3 06:16:08 10° SSW 06:20:17 33° W 06:24:24 10° NW
Thor Agena Rocket 3.6 06:16:37 10° SSE 06:21:41 79° ENE 06:26:44 10° N
ERS-2 2.5 06:18:29 10° N 06:21:59 41° WNW 06:25:12 12° SW
USA 229 DEB 3.7 06:15:54 10° SW 06:22:43 73° WNW 06:29:39 10° NNE
USA 229 3.7 06:16:01 10° SW 06:22:49 73° WNW 06:29:45 10° NNE
Radarsat Rocket 4.4 06:18:01 10° NNE 06:23:54 63° ESE 06:29:39 10° S
GPS 2-04 Rocket1 4.1 06:21:03 12° SSW 06:24:01 28° SSE 06:27:17 10° E
Cosmos 2219 Rocket 2.2 06:18:59 10° SW 06:24:28 60° WNW 06:30:00 10° NNE
ISS -2.8 06:24:20 22° W 06:25:25 27° SW 06:28:16 10° SSE
Okean 2 3.5 06:22:29 10° S 06:26:38 84° E 06:30:49 10° N
Meteor 2-9 Rocket 4.2 06:22:33 10° N 06:28:15 84° W 06:33:44 10° S
Cosmos 2341 Rocket 4.1 06:23:32 10° NNW 06:29:34 52° W 06:35:32 10° SSW
GENESIS II 4.4 06:25:40 10° SSW 06:29:42 77° ESE 06:33:47 10° NNE
Cosmos 1606 Rocket 4.1 06:25:26 10° N 06:29:53 64° E 06:34:19 10° SSE
Cosmos 1844 Rocket 2.7 06:31:01 10° NNW 06:36:28 55° WSW 06:41:52 10° S
Meteor 1-28 Rocket 4.3 06:33:27 10° SSE 06:37:06 49° ENE 06:40:49 10° N
Meteor 1-15 Rocket 4.4 06:32:31 10° N 06:38:28 86° E 06:44:24 10° S
NOSS 3-1 (C) 3.9 06:33:26 10° SSW 06:38:59 61° ESE 06:45:07 10° NE
Cosmos 2218 Rocket 4.1 06:32:39 10° N 06:39:05 90° N 06:45:24 10° S
Cosmos 2360 Rocket 4.1 06:40:30 10° WNW 06:42:01 11° NW 06:43:32 10° NW
Cosmos 1898 Rocket 3.4 06:38:06 10° NNW 06:43:18 74° WSW 06:48:26 10° S
Cosmos 468 Rocket 4.3 06:38:22 10° SW 06:43:20 47° WNW 06:48:22 10° N
CZ-4 R/B 4.5 06:43:16 10° NE 06:45:49 17° E 06:48:20 10° SE
Cosmos 371 Rocket 3.8 06:41:35 10° S 06:46:23 66° ESE 06:51:13 10° NNE
Cosmos 2278 Rocket 2.6 06:41:11 10° NNW 06:46:52 72° ENE 06:52:30 10° SSE
Cosmos 1441 Rocket 3.7 06:43:30 10° S 06:47:24 69° E 06:51:22 10° NNE
Meteor 2-4 Rocket 4.2 06:42:46 10° SW 06:48:00 39° WNW 06:53:08 10° N
Cosmos 332 Rocket 3.8 06:44:08 10° SSW 06:49:02 86° WNW 06:53:58 10° NNE
Cosmos 2237 Rocket 2.2 06:43:45 10° SSW 06:49:22 65° WNW 06:55:02 10° NNE
Cosmos 405 Rocket 3.2 06:47:06 10° SSW 06:51:00 44° WNW 06:54:53 10° N
COSMO-SKYMED 1 2.5 06:50:20 10° S 06:54:39 74° W 06:59:00 10° NNW
Ariane Rocket 3.7 06:50:44 10° NNE 06:55:45 61° ESE 07:00:44 10° S
Cosmos 1515 3.7 06:52:08 10° S 06:55:58 82° W 06:59:50 10° N
Okean-O 3.7 06:53:00 10° NNW 06:56:38 25° WNW 07:00:16 10° SW
OAO 3 Copernicus 4.4 06:52:35 10° W 06:57:38 84° S 07:02:40 10° E
Cosmos 405 4.4 06:54:38 10° N 06:58:02 44° E 07:01:26 10° SSE
Cosmos 1809 Rocket 4.5 06:57:09 10° N 07:03:20 79° W 07:09:29 10° S
